AMC-21

Last updated on Mon Oct 20 2025 00:02:46 GMT+0000 (Coordinated Universal Time)

1 33275U 08038B 25292.24253043 .00000036 00000+0 00000+0 0 9999 2 33275 2.3222 83.2379 0002956 137.3472 129.8148 1.00271692 63071
UTC large
Height (km)
Speed (km/s)
/
Latitude / Longitude
Inclination (degrees)
Orbital Period (minutes)
Azimuth
Elevation
Range (km)
Doppler Factor

Next 0 passes for location: London (51.5072 / 0.1276)

Sorry there are no passes over London.